1513123200.96,27113,7.0,72802.5,-7.43,-7.99,-8.07,0,*5E
1513123202.25,27114,7.0,72802.5,-7.43,-7.99,-8.07,0,*59
1513123203.53,27115,7.0,72800.5,-7.43,-8.07,-8.07,0,*50
1513123204.78,27116,7.0,72800.8,-7.45,-8.11,-8.11,0,*55
1513123206.03,27117,7.0,72804.8,-7.45,-8.11,-8.11,0,*54
1513123207.31,27118,7.0,72804.3,-7.43,-8.07,-7.99,0,*55
1513123208.6,27119,7.0,72804.0,-7.43,-8.11,-8.07,0,*5B
1513123209.82,27120,7.06,72804.3,-7.45,-8.17,-8.11,0,*56
1513123211.11,27121,7.0,72804.0,-7.43,-8.07,-8.07,0,*57
1513123212.4,27122,7.06,72804.0,-7.43,-8.07,-8.07,0,*54
1513123213.65,27123,7.0,72806.3,-7.45,-8.11,-8.11,0,*53
1513123214.93,27124,7.06,72804.8,-7.43,-8.07,-8.07,0,*52
1513123216.21,27125,7.0,72806.3,-7.43,-8.11,-7.99,0,*5C
1513123217.46,27126,7.06,72806.5,-7.45,-8.11,-8.03,0,*55
1513123218.71,27127,7.0,72804.8,-7.43,-8.07,-8.17,0,*50
1513123219.99,27128,7.06,72804.3,-7.43,-8.11,-8.07,0,*59
1513123221.24,27129,7.0,72800.3,-7.45,-8.03,-8.11,0,*5A
1513123222.53,27130,7.0,72804.0,-7.43,-8.07,-8.07,0,*57
1513123223.81,27131,7.06,72806.3,-7.43,-8.07,-8.07,0,*56
1513123225.06,27132,7.0,72804.0,-7.45,-8.11,-8.11,0,*53
1513123226.31,27133,7.06,72806.5,-7.45,-8.03,-8.11,0,*51
1513123227.53,27134,7.06,72806.0,-7.45,-8.03,-8.17,0,*50
1513123228.8,27135,7.0,72802.8,-7.43,-8.07,-8.11,0,*55
1513123230.08,27136,7.06,72806.0,-7.43,-7.99,-7.99,0,*51
1513123231.35,27137,7.0,72804.8,-7.43,-7.99,-7.99,0,*50
1513123232.59,27138,7.06,72810.0,-7.45,-8.03,-8.03,0,*59
1513123233.87,27139,7.0,72806.0,-7.43,-8.07,-7.99,0,*56
1513123235.12,27140,7.0,72800.0,-7.45,-8.11,-8.03,0,*55
1513123236.4,27141,7.0,72804.3,-7.43,-8.07,-8.03,0,*55
1513123237.67,27142,7.0,72802.3,-7.43,-7.99,-7.95,0,*5E
1513123238.94,27143,7.06,72802.8,-7.43,-7.99,-7.99,0,*53
1513123240.22,27144,7.0,72800.8,-7.43,-7.99,-7.99,0,*54
1513123241.46,27145,7.06,72804.8,-7.45,-8.03,-8.03,0,*53
1513123242.73,27146,7.0,72802.0,-7.43,-8.07,-7.95,0,*52
1513123244.02,27147,7.0,72800.8,-7.43,-8.07,-8.07,0,*57
1513123245.29,27148,7.0,72802.3,-7.43,-7.99,-7.95,0,*54
1513123246.57,27149,7.0,72800.5,-7.43,-7.99,-8.07,0,*51
1513123247.85,27150,7.0,72802.0,-7.43,-8.07,-7.99,0,*59
1513123249.13,27151,7.0,72800.0,-7.43,-7.99,-7.99,0,*50
1513123250.41,27152,7.06,72802.8,-7.43,-8.07,-7.99,0,*5B
1513123251.68,27153,7.0,72802.3,-7.43,-7.99,-7.99,0,*52
1513123252.96,27154,7.0,72800.0,-7.43,-8.07,-7.99,0,*5D
1513123254.21,27155,7.0,72802.5,-7.45,-8.07,-7.95,0,*56
1513123255.49,27156,7.06,72802.0,-7.43,-7.99,-8.07,0,*5F
1513123256.77,27157,7.06,72800.8,-7.43,-8.07,-8.07,0,*56
1513123258.05,27158,7.0,72800.5,-7.43,-8.07,-7.95,0,*5D
1513123259.34,27159,7.0,72804.5,-7.43,-8.11,-8.07,0,*5F
1513123260.62,27160,7.06,72806.8,-7.43,-7.99,-8.07,0,*5A
1513123261.9,27161,7.0,72802.8,-7.43,-8.07,-8.11,0,*54
1513123263.18,27162,7.0,72804.5,-7.43,-8.11,-8.11,0,*50
1513123264.4,27163,7.0,72802.5,-7.45,-8.25,-8.11,0,*50
1513123265.65,27164,7.0,72804.8,-7.43,-8.21,-8.11,0,*55
1513123266.94,27165,7.0,72804.3,-7.43,-8.11,-8.07,0,*50
1513123268.13,27166,7.0,72802.8,-7.45,-8.17,-8.17,0,*52
1513123269.41,27167,7.0,72802.3,-7.43,-8.11,-8.11,0,*55
1513123270.64,27168,7.0,72806.3,-7.45,-8.11,-8.17,0,*5A
1513123271.83,27169,7.0,72800.8,-7.45,-8.25,-8.17,0,*5C
1513123273.11,27170,7.0,72802.8,-7.43,-8.11,-8.11,0,*53
1513123274.4,27171,7.0,72802.5,-7.43,-8.11,-8.07,0,*55
1513123275.62,27172,7.0,72806.3,-7.45,-8.11,-8.17,0,*51
1513123276.85,27173,7.06,72806.8,-7.45,-8.11,-8.17,0,*50
1513123278.07,27174,7.0,72804.5,-7.45,-8.17,-8.11,0,*57
1513123279.35,27175,7.06,72804.5,-7.43,-8.11,-8.11,0,*56
1513123280.63,27176,7.0,72806.3,-7.43,-8.07,-8.11,0,*52
1513123281.86,27177,7.0,72806.0,-7.45,-8.17,-8.11,0,*54
1513123283.11,27178,7.0,72806.0,-7.45,-8.11,-8.11,0,*5D
1513123284.39,27179,7.06,72804.5,-7.43,-8.11,-8.07,0,*5D
1513123285.62,27180,7.06,72806.8,-7.45,-8.17,-8.11,0,*5C
1513123286.87,27181,7.0,72802.3,-7.45,-8.11,-8.11,0,*5B
1513123288.11,27182,7.0,72802.0,-7.45,-8.03,-8.11,0,*5B
1513123289.34,27183,7.0,72802.0,-7.45,-8.11,-8.17,0,*5F
1513123290.59,27184,7.0,72802.5,-7.45,-8.11,-8.03,0,*5D
1513123291.86,27185,7.0,72802.3,-7.43,-8.07,-7.99,0,*51
1513123293.11,27186,7.0,72806.0,-7.45,-8.11,-8.11,0,*5C
1513123294.37,27187,7.06,72804.8,-7.45,-8.11,-8.11,0,*5D
1513123295.61,27188,7.06,72804.5,-7.45,-8.03,-8.03,0,*52
1513123296.86,27189,7.06,72806.0,-7.45,-8.11,-8.11,0,*53
1513123298.14,27190,7.0,72802.8,-7.43,-8.07,-8.11,0,*5A
1513123299.39,27191,7.0,72806.5,-7.45,-8.11,-8.11,0,*5A
1513123300.64,27192,7.0,72804.3,-7.45,-8.11,-8.11,0,*59
1513123301.93,27193,7.0,72804.3,-7.43,-8.11,-8.07,0,*59
1513123303.18,27194,7.0,72802.5,-7.45,-8.11,-8.11,0,*5F
1513123304.46,27195,7.06,72810.0,-7.43,-8.07,-8.07,0,*58
1513123305.72,27196,7.0,72804.8,-7.45,-8.07,-8.07,0,*5D
1513123306.97,27197,7.06,72804.0,-7.45,-8.11,-8.11,0,*5C
1513123308.23,27198,7.0,72800.0,-7.45,-8.11,-8.11,0,*53
1513123309.47,27199,7.0,72800.8,-7.45,-8.03,-8.11,0,*51
1513123310.75,27200,7.06,72800.0,-7.43,-7.99,-8.07,0,*5F
1513123312.0,27201,7.0,72800.3,-7.45,-8.11,-7.99,0,*5F
1513123313.25,27202,7.06,72804.8,-7.45,-8.11,-8.11,0,*53
1513123314.53,27203,7.0,72800.0,-7.43,-7.99,-7.99,0,*54
1513123315.77,27204,7.0,72800.5,-7.45,-8.03,-8.03,0,*55
1513123317.01,27205,7.0,72798.5,-7.45,-8.03,-8.03,0,*54
1513123318.29,27206,7.0,72796.3,-7.43,-7.99,-7.99,0,*51
1513123319.56,27207,7.0,72798.3,-7.43,-7.99,-7.99,0,*50
1513123320.8,27208,7.0,72800.5,-7.45,-8.03,-7.99,0,*55
1513123322.05,27209,7.0,72794.3,-7.45,-8.03,-8.03,0,*58
1513123323.29,27210,7.0,72798.5,-7.45,-7.99,-8.03,0,*5C
1513123324.53,27211,7.0,72798.0,-7.45,-8.03,-7.99,0,*5D
1513123325.77,27212,7.0,72802.5,-7.45,-8.03,-8.03,0,*52
1513123327.02,27213,7.0,72798.5,-7.45,-8.03,-8.11,0,*50
1513123328.29,27214,7.0,72798.5,-7.43,-7.99,-7.99,0,*52
1513123329.54,27215,7.0,72800.3,-7.45,-8.11,-8.03,0,*56
1513123330.79,27216,7.06,72800.5,-7.45,-7.95,-7.95,0,*56
1513123332.03,27217,7.0,72800.3,-7.45,-7.99,-8.03,0,*5B
1513123333.27,27218,7.0,72800.0,-7.45,-8.03,-7.99,0,*54
1513123334.55,27219,7.0,72800.8,-7.43,-7.99,-7.95,0,*53
1513123335.79,27220,7.0,72796.3,-7.45,-7.99,-7.99,0,*53
1513123337.04,27221,7.0,72800.0,-7.45,-7.99,-8.03,0,*5E
1513123338.28,27222,7.0,72802.8,-7.45,-7.99,-7.99,0,*51
1513123339.55,27223,7.0,72800.3,-7.43,-7.99,-8.03,0,*5A
1513123340.83,27224,7.0,72798.5,-7.43,-7.99,-7.95,0,*5D
1513123342.1,27225,7.0,72796.8,-7.43,-7.99,-7.99,0,*50
1513123343.34,27226,7.0,72802.8,-7.45,-8.03,-8.03,0,*55
1513123344.58,27227,7.0,72802.3,-7.45,-8.03,-8.03,0,*54
1513123345.83,27228,7.0,72800.3,-7.45,-8.03,-7.99,0,*57
1513123347.07,27229,7.0,72802.8,-7.45,-7.99,-8.03,0,*56
1513123348.34,27230,7.06,72806.3,-7.43,-7.95,-7.95,0,*54
1513123349.59,27231,7.0,72804.0,-7.45,-8.03,-7.99,0,*5F
1513123350.83,27232,7.06,72804.8,-7.45,-7.99,-8.03,0,*5C
1513123352.07,27233,7.0,72804.0,-7.45,-8.03,-8.03,0,*51
1513123353.32,27234,7.0,72800.0,-7.45,-7.99,-8.03,0,*5A
1513123354.56,27235,7.06,72804.5,-7.45,-8.03,-8.03,0,*57
1513123355.83,27236,7.0,72800.5,-7.43,-7.99,-7.95,0,*5E
1513123357.07,27237,7.0,72806.3,-7.45,-7.95,-8.03,0,*55
1513123358.32,27238,7.0,72804.8,-7.45,-8.03,-7.99,0,*56
1513123359.59,27239,7.0,72802.8,-7.43,-7.95,-7.99,0,*51
1513123360.86,27240,7.06,72808.3,-7.43,-7.99,-8.03,0,*5F
1513123362.1,27241,7.0,72804.8,-7.45,-8.03,-8.03,0,*54
1513123363.34,27242,7.0,72808.0,-7.45,-8.03,-8.03,0,*57
1513123364.59,27243,7.0,72806.5,-7.45,-8.11,-8.03,0,*55
1513123365.84,27244,7.0,72802.3,-7.45,-8.03,-7.99,0,*5D
1513123367.08,27245,7.0,72808.3,-7.45,-8.03,-8.11,0,*53
1513123368.36,27246,7.06,72808.0,-7.43,-7.95,-7.99,0,*59
1513123369.6,27247,7.0,72804.8,-7.45,-7.99,-8.03,0,*5E
1513123370.84,27248,7.0,72806.3,-7.45,-8.03,-8.03,0,*5D
1513123372.08,27249,7.0,72808.5,-7.45,-8.03,-8.03,0,*5C
1513123373.36,27250,7.0,72804.0,-7.43,-7.95,-7.99,0,*5E
1513123374.64,27251,7.0,72806.0,-7.43,-7.99,-8.07,0,*5B
1513123375.91,27252,7.06,72806.3,-7.43,-7.99,-7.99,0,*50
1513123377.16,27253,7.0,72806.0,-7.45,-8.03,-7.99,0,*5B
1513123378.4,27254,7.0,72804.0,-7.45,-8.11,-8.03,0,*53
1513123379.68,27255,7.0,72806.8,-7.43,-8.07,-7.99,0,*5F
1513123380.93,27256,7.0,72806.8,-7.45,-8.11,-8.03,0,*51
1513123382.17,27257,7.0,72806.5,-7.45,-8.03,-8.03,0,*53
1513123383.44,27258,7.0,72806.3,-7.43,-7.99,-7.99,0,*5A
1513123384.68,27259,7.0,72806.3,-7.45,-8.03,-8.03,0,*5D
1513123385.93,27260,7.0,72810.8,-7.45,-8.03,-8.03,0,*57
1513123387.21,27261,7.0,72810.3,-7.43,-7.99,-8.07,0,*58
1513123388.49,27262,7.06,72810.3,-7.43,-7.99,-8.07,0,*5B
1513123389.77,27263,7.0,72806.8,-7.43,-7.99,-8.07,0,*5A
1513123391.02,27264,7.0,72810.3,-7.45,-8.11,-8.11,0,*53
1513123392.27,27265,7.06,72810.5,-7.45,-8.07,-8.11,0,*55
1513123393.53,27266,7.06,72808.8,-7.45,-8.11,-8.11,0,*51
1513123394.77,27267,7.06,72810.0,-7.45,-8.11,-8.03,0,*53
1513123396.01,27268,7.0,72812.3,-7.45,-8.03,-8.03,0,*5F
1513123397.26,27269,7.0,72808.5,-7.45,-8.03,-8.11,0,*5D
1513123398.54,27270,7.0,72808.5,-7.43,-8.07,-7.99,0,*58
1513123399.78,27271,7.0,72808.0,-7.45,-7.99,-8.03,0,*5B
1513123401.03,27272,7.06,72810.8,-7.45,-7.99,-8.03,0,*58
1513123402.27,27273,7.0,72808.5,-7.45,-8.11,-8.03,0,*56
1513123403.55,27274,7.0,72810.8,-7.43,-8.07,-7.95,0,*50
1513123404.8,27275,7.06,72812.0,-7.45,-8.11,-8.11,0,*53
1513123406.05,27276,7.0,72810.5,-7.45,-8.11,-8.11,0,*50
1513123407.3,27277,7.0,72812.5,-7.45,-8.11,-8.11,0,*51
1513123408.56,27278,7.0,72808.0,-7.45,-8.11,-8.11,0,*5E
1513123409.81,27279,7.0,72808.8,-7.45,-8.07,-8.03,0,*5B
1513123411.06,27280,7.0,72810.5,-7.45,-8.11,-8.11,0,*59
1513123412.34,27281,7.0,72810.8,-7.43,-8.11,-8.07,0,*59
1513123413.59,27282,7.06,72810.8,-7.45,-8.11,-8.03,0,*58
1513123414.84,27283,7.0,72808.3,-7.45,-8.11,-8.03,0,*59
1513123416.08,27284,7.06,72812.5,-7.45,-8.03,-8.03,0,*5D
1513123417.33,27285,7.0,72808.5,-7.45,-8.11,-8.03,0,*5F
1513123418.57,27286,7.0,72808.5,-7.45,-8.11,-8.03,0,*5C
1513123419.82,27287,7.0,72808.0,-7.45,-7.99,-8.03,0,*52
1513123421.06,27288,7.0,72808.0,-7.45,-8.11,-8.03,0,*52
1513123422.32,27289,7.06,72812.0,-7.45,-8.11,-8.11,0,*50
1513123423.56,27290,7.06,72812.5,-7.45,-8.03,-8.11,0,*5B
1513123424.79,27291,7.0,72810.8,-7.45,-8.17,-8.11,0,*5F
1513123426.04,27292,7.0,72812.8,-7.45,-8.11,-8.11,0,*5A
1513123427.29,27293,7.0,72814.0,-7.45,-8.11,-8.03,0,*58
1513123428.53,27294,7.06,72814.5,-7.45,-8.03,-7.99,0,*50
1513123429.81,27295,7.0,72812.8,-7.43,-7.99,-8.07,0,*53
1513123431.04,27296,7.0,72816.0,-7.45,-8.11,-8.17,0,*58
1513123432.31,27297,7.06,72818.0,-7.43,-8.11,-8.03,0,*5A
1513123433.56,27298,7.06,72816.0,-7.45,-8.11,-8.11,0,*50
1513123434.8,27299,7.0,72808.0,-7.45,-8.03,-8.03,0,*51
1513123436.05,27300,7.06,72812.5,-7.45,-8.03,-8.11,0,*53
1513123437.3,27301,7.0,72814.8,-7.47,-8.11,-8.17,0,*55
1513123438.57,27302,7.0,72814.3,-7.47,-8.03,-8.03,0,*50
1513123439.85,27303,7.0,72808.3,-7.47,-8.11,-8.11,0,*51
1513123441.1,27304,7.06,72812.3,-7.45,-8.11,-8.03,0,*57
1513123442.35,27305,7.0,72810.3,-7.45,-8.11,-8.03,0,*56
1513123443.6,27306,7.0,72808.8,-7.45,-8.11,-8.11,0,*56
1513123444.84,27307,7.0,72808.0,-7.45,-8.03,-8.03,0,*57
1513123446.08,27308,7.0,72808.8,-7.45,-8.03,-8.03,0,*58
1513123447.33,27309,7.0,72808.0,-7.45,-8.11,-8.03,0,*5A
1513123448.58,27310,7.06,72814.0,-7.45,-8.11,-7.99,0,*5E
1513123449.82,27311,7.06,72808.3,-7.45,-8.03,-8.03,0,*50
1513123451.07,27312,7.06,72812.5,-7.45,-8.11,-8.03,0,*50
1513123452.32,27313,7.0,72810.5,-7.45,-8.11,-8.03,0,*51
1513123453.56,27314,7.0,72810.0,-7.45,-8.11,-8.03,0,*56
1513123454.82,27315,7.06,72812.8,-7.45,-8.11,-8.11,0,*54
1513123456.03,27316,7.0,72812.0,-7.45,-8.03,-8.17,0,*52
1513123457.26,27317,7.0,72810.8,-7.45,-8.17,-8.11,0,*50
1513123458.51,27318,7.0,72806.3,-7.45,-8.11,-8.11,0,*59
1513123459.76,27319,7.0,72806.5,-7.45,-8.11,-8.11,0,*58
1513123461.01,27320,7.0,72804.0,-7.45,-8.11,-8.11,0,*52
1513123462.26,27321,7.0,72804.8,-7.45,-8.11,-8.11,0,*53
1513123463.52,27322,7.06,72808.8,-7.45,-8.11,-8.11,0,*50
1513123464.79,27323,7.06,72808.3,-7.47,-8.11,-8.03,0,*50
1513123466.07,27324,7.0,72806.8,-7.47,-8.11,-8.11,0,*54
1513123467.33,27325,7.0,72804.5,-7.45,-8.11,-8.11,0,*57
1513123468.52,27326,7.0,72808.0,-7.45,-8.17,-8.17,0,*54
1513123469.78,27327,7.0,72808.5,-7.45,-8.11,-8.11,0,*55
1513123471.03,27328,7.06,72810.3,-7.45,-8.11,-8.11,0,*5A
1513123472.31,27329,7.0,72804.3,-7.47,-8.11,-8.11,0,*59
1513123473.56,27330,7.06,72814.0,-7.47,-8.17,-8.03,0,*54
1513123474.81,27331,7.0,72810.5,-7.47,-8.11,-8.17,0,*56
1513123476.07,27332,7.0,72812.8,-7.47,-8.17,-8.11,0,*55
1513123477.27,27333,7.0,72808.3,-7.45,-8.17,-8.17,0,*50
1513123478.51,27334,7.06,72816.3,-7.45,-8.11,-8.03,0,*54
1513123479.73,27335,7.0,72810.0,-7.45,-8.17,-8.03,0,*53
1513123480.98,27336,7.0,72810.0,-7.45,-8.11,-8.11,0,*55
1513123482.21,27337,7.06,72814.3,-7.45,-8.17,-8.11,0,*52
1513123483.49,27338,7.0,72814.5,-7.47,-8.11,-8.11,0,*59
1513123484.77,27339,7.06,72812.0,-7.47,-8.11,-8.11,0,*58
1513123486.05,27340,7.0,72814.3,-7.47,-8.11,-8.03,0,*55
1513123487.33,27341,7.06,72814.8,-7.47,-8.11,-8.03,0,*54
1513123488.6,27342,7.06,72814.5,-7.47,-8.03,-8.11,0,*57
1513123489.88,27343,7.0,72812.8,-7.47,-8.11,-8.11,0,*55
1513123491.16,27344,7.0,72814.5,-7.47,-8.11,-8.11,0,*52
1513123492.45,27345,7.06,72814.5,-7.47,-8.11,-8.11,0,*53
1513123493.73,27346,7.0,72810.0,-7.47,-8.11,-8.11,0,*50
1513123494.95,27347,7.0,72810.8,-7.49,-8.11,-8.17,0,*59
1513123496.24,27348,7.0,72810.0,-7.47,-8.11,-8.11,0,*5E
1513123497.49,27349,7.0,72814.8,-7.45,-8.11,-8.11,0,*5D
1513123498.71,27350,7.0,72812.0,-7.45,-8.11,-8.17,0,*53
1513123499.91,27351,7.0,72814.8,-7.45,-8.17,-8.17,0,*54
1513123501.16,27352,7.0,72814.0,-7.45,-8.11,-8.11,0,*57
1513123502.39,27353,7.0,72816.0,-7.45,-8.17,-8.11,0,*50
1513123503.64,27354,7.0,72816.0,-7.45,-8.11,-8.11,0,*51
1513123504.89,27355,7.0,72814.3,-7.45,-8.11,-8.11,0,*50
1513123506.14,27356,7.0,72812.5,-7.45,-8.11,-8.11,0,*53
1513123507.42,27357,7.06,72818.0,-7.47,-8.11,-8.11,0,*50
1513123508.7,27358,7.0,72814.0,-7.47,-8.03,-8.11,0,*5C
1513123509.98,27359,7.0,72812.8,-7.47,-8.11,-8.11,0,*5E
1513123511.26,27360,7.0,72814.0,-7.47,-8.11,-8.11,0,*54
1513123512.51,27361,7.0,72814.0,-7.47,-8.11,-8.17,0,*53
1513123513.74,27362,7.0,72816.5,-7.47,-8.17,-8.17,0,*56
1513123514.99,27363,7.0,72816.0,-7.47,-8.17,-8.03,0,*52
1513123516.22,27364,7.0,72814.0,-7.49,-8.17,-8.07,0,*5F
1513123517.5,27365,7.0,72812.0,-7.47,-8.03,-8.11,0,*52
1513123518.73,27366,7.0,72810.8,-7.49,-8.17,-8.07,0,*5D
1513123519.97,27367,7.0,72814.3,-7.49,-8.17,-8.07,0,*5C
1513123521.24,27368,7.0,72818.0,-7.47,-8.11,-8.03,0,*5F
1513123522.52,27369,7.0,72816.5,-7.47,-8.11,-8.03,0,*5E
1513123523.72,27370,7.0,72818.8,-7.49,-8.17,-8.17,0,*5B
1513123525.0,27371,7.06,72818.8,-7.47,-8.11,-8.11,0,*54
1513123526.27,27372,7.0,72812.8,-7.47,-8.03,-8.03,0,*57
1513123527.51,27373,7.0,72812.5,-7.49,-8.17,-8.07,0,*59
1513123528.79,27374,7.0,72814.0,-7.47,-8.11,-8.11,0,*51
1513123530.07,27375,7.0,72812.5,-7.47,-8.11,-8.11,0,*50
1513123531.3,27376,7.0,72812.8,-7.47,-8.17,-8.17,0,*53
1513123532.5,27377,7.0,72814.5,-7.49,-8.21,-8.17,0,*59
1513123533.78,27378,7.0,72814.3,-7.47,-8.11,-8.11,0,*5D
1513123535.06,27379,7.0,72812.5,-7.47,-8.11,-8.11,0,*5C
1513123536.32,27380,7.06,72816.0,-7.47,-8.11,-8.17,0,*5C
1513123537.6,27381,7.0,72816.3,-7.47,-8.11,-8.11,0,*5B
1513123538.88,27382,7.0,72812.8,-7.47,-8.11,-8.11,0,*58
1513123540.16,27383,7.0,72814.5,-7.47,-8.11,-8.11,0,*59
1513123541.43,27384,7.0,72808.3,-7.47,-8.03,-8.11,0,*5D
1513123542.71,27385,7.0,72810.5,-7.47,-8.03,-8.07,0,*5B
1513123543.99,27386,7.0,72810.5,-7.47,-7.99,-8.03,0,*50
1513123545.26,27387,7.0,72806.5,-7.47,-8.03,-8.03,0,*5D
1513123546.52,27388,7.0,72810.8,-7.49,-8.07,-8.07,0,*5C
1513123547.78,27389,7.0,72812.3,-7.49,-8.07,-8.07,0,*5D
1513123549.05,27390,7.0,72808.0,-7.47,-8.03,-8.03,0,*5B
1513123550.32,27391,7.0,72810.0,-7.47,-8.03,-8.03,0,*5A
1513123551.59,27392,7.06,72812.3,-7.47,-8.03,-8.03,0,*59
1513123552.86,27393,7.0,72814.3,-7.47,-8.03,-8.03,0,*58
1513123554.13,27394,7.06,72812.5,-7.47,-8.03,-8.03,0,*5F
1513123555.4,27395,7.0,72812.3,-7.47,-8.03,-8.03,0,*5E
1513123556.66,27396,7.0,72814.0,-7.49,-8.07,-8.07,0,*53
1513123557.94,27397,7.0,72812.0,-7.47,-8.03,-8.11,0,*5F
1513123559.22,27398,7.0,72814.5,-7.47,-8.11,-8.11,0,*53
1513123560.5,27399,7.06,72818.0,-7.47,-8.11,-8.03,0,*51
1513123561.75,27400,7.06,72816.5,-7.47,-8.17,-8.03,0,*50
1513123563.0,27401,7.0,72816.0,-7.47,-8.17,-8.03,0,*51
1513123564.27,27402,7.0,72816.3,-7.47,-8.03,-8.11,0,*54
1513123565.52,27403,7.0,72816.8,-7.47,-8.17,-8.03,0,*53
1513123566.77,27404,7.0,72812.3,-7.47,-8.17,-8.03,0,*54
1513123568.01,27405,7.0,72812.0,-7.49,-8.17,-8.07,0,*5F
1513123569.3,27406,7.06,72812.0,-7.47,-8.11,-8.07,0,*54
1513123570.5,27407,7.06,72812.3,-7.49,-8.17,-8.17,0,*5C
1513123571.76,27408,7.0,72810.8,-7.49,-8.07,-8.07,0,*53
1513123572.96,27409,7.0,72814.8,-7.49,-8.17,-8.17,0,*52
1513123574.21,27410,7.0,72812.0,-7.49,-8.03,-8.07,0,*5E
1513123575.49,27411,7.0,72814.5,-7.47,-7.99,-8.03,0,*59
1513123576.72,27412,7.0,72818.8,-7.49,-8.17,-8.07,0,*59
1513123577.99,27413,7.0,72814.8,-7.49,-8.07,-8.07,0,*59
1513123579.25,27414,7.0,72814.5,-7.49,-8.07,-8.07,0,*5E
1513123580.52,27415,7.0,72816.5,-7.47,-8.03,-7.99,0,*5D
1513123581.78,27416,7.0,72818.0,-7.49,-8.07,-8.07,0,*5C
1513123583.06,27417,7.0,72816.5,-7.47,-8.11,-8.11,0,*53
1513123584.34,27418,7.0,72816.3,-7.47,-8.11,-8.11,0,*5C
1513123585.63,27419,7.0,72818.5,-7.47,-8.11,-8.11,0,*5D
1513123586.91,27420,7.06,72816.8,-7.47,-8.11,-8.11,0,*57
1513123588.13,27421,7.0,72816.0,-7.49,-8.11,-8.17,0,*5E
1513123589.41,27422,7.0,72818.0,-7.47,-8.03,-8.11,0,*56
1513123590.64,27423,7.0,72818.0,-7.49,-8.17,-8.07,0,*5B
1513123591.92,27424,7.0,72816.3,-7.47,-8.11,-8.03,0,*50
1513123593.18,27425,7.0,72816.0,-7.47,-8.17,-8.11,0,*54
1513123594.37,27426,7.0,72816.5,-7.49,-8.21,-8.17,0,*5A
1513123595.58,27427,7.06,72822.3,-7.49,-8.17,-8.17,0,*5E
1513123596.77,27428,7.06,72822.8,-7.49,-8.21,-8.17,0,*54
1513123598.05,27429,7.0,72812.3,-7.47,-8.11,-8.11,0,*5E
1513123599.31,27430,7.0,72816.3,-7.47,-8.11,-8.17,0,*50
1513123600.51,27431,7.0,72818.3,-7.49,-8.17,-8.17,0,*59
1513123601.74,27432,7.0,72818.0,-7.49,-8.17,-8.11,0,*5C
1513123602.94,27433,7.06,72820.5,-7.49,-8.17,-8.21,0,*5E
1513123604.14,27434,7.0,72820.0,-7.49,-8.17,-8.17,0,*5C
1513123605.4,27435,7.0,72816.3,-7.47,-8.17,-8.11,0,*55
1513123606.6,27436,7.0,72820.5,-7.49,-8.21,-8.17,0,*5B
1513123607.85,27437,7.0,72820.8,-7.47,-8.11,-8.17,0,*57
1513123609.05,27438,7.0,72820.5,-7.49,-8.21,-8.17,0,*55
1513123610.28,27439,7.0,72820.5,-7.49,-8.21,-8.07,0,*55
1513123611.48,27440,7.0,72816.3,-7.49,-8.21,-8.17,0,*5A
1513123612.76,27441,7.0,72820.8,-7.47,-8.11,-8.11,0,*50
1513123614.02,27442,7.06,72820.0,-7.47,-8.11,-8.17,0,*55
1513123615.22,27443,7.0,72818.3,-7.49,-8.17,-8.17,0,*5C
1513123616.45,27444,7.0,72820.3,-7.49,-8.17,-8.07,0,*5A
1513123617.73,27445,7.0,72818.8,-7.47,-8.11,-8.11,0,*54
1513123618.96,27446,7.0,72818.0,-7.49,-8.11,-8.17,0,*5F
1513123620.24,27447,7.0,72820.5,-7.47,-8.11,-8.11,0,*56
1513123621.44,27448,7.0,72818.3,-7.49,-8.17,-8.17,0,*57
1513123622.73,27449,7.0,72820.5,-7.47,-8.11,-8.11,0,*58
1513123623.92,27450,7.0,72820.5,-7.49,-8.21,-8.17,0,*5B
1513123625.16,27451,7.0,72822.3,-7.49,-8.17,-8.07,0,*5E
1513123626.36,27452,7.0,72820.5,-7.49,-8.21,-8.17,0,*59
1513123627.64,27453,7.0,72822.8,-7.47,-8.11,-8.11,0,*53
1513123628.92,27454,7.0,72820.0,-7.47,-8.11,-8.11,0,*54
1513123630.2,27455,7.0,72822.0,-7.47,-8.11,-8.11,0,*55
1513123631.4,27456,7.06,72824.5,-7.49,-8.17,-8.21,0,*5D
1513123632.61,27457,7.06,72824.0,-7.49,-8.17,-8.17,0,*59
1513123633.81,27458,7.0,72820.0,-7.49,-8.17,-8.17,0,*56
1513123635.03,27459,7.0,72824.3,-7.49,-8.03,-8.17,0,*52
1513123636.23,27460,7.0,72822.3,-7.49,-8.17,-8.17,0,*5D
1513123637.43,27461,7.0,72826.3,-7.49,-8.17,-8.21,0,*59
1513123638.71,27462,7.0,72822.3,-7.47,-8.11,-8.03,0,*52
1513123639.91,27463,7.0,72822.0,-7.49,-8.17,-8.21,0,*5B
1513123641.11,27464,7.06,72824.5,-7.49,-8.21,-8.17,0,*5C
1513123642.38,27465,7.0,72822.8,-7.47,-8.03,-8.03,0,*56
1513123643.58,27466,7.0,72822.0,-7.49,-8.17,-8.17,0,*5B
1513123644.78,27467,7.0,72822.5,-7.49,-8.17,-8.17,0,*5A
1513123646.07,27468,7.06,72824.0,-7.47,-8.11,-8.11,0,*5B
1513123647.27,27469,7.0,72822.5,-7.49,-8.17,-8.17,0,*54
1513123648.5,27470,7.0,72824.5,-7.49,-8.07,-8.17,0,*5D
1513123649.7,27471,7.0,72822.0,-7.49,-8.17,-8.17,0,*5D
1513123650.9,27472,7.0,72820.8,-7.49,-8.17,-8.21,0,*5B
1513123652.16,27473,7.0,72820.5,-7.49,-8.07,-8.07,0,*5F
1513123653.44,27474,7.0,72822.3,-7.47,-8.11,-7.99,0,*59
1513123654.67,27475,7.0,72820.8,-7.49,-8.17,-8.03,0,*5C
1513123655.94,27476,7.0,72824.8,-7.47,-8.03,-8.11,0,*57
1513123657.2,27477,7.0,72820.5,-7.49,-8.07,-8.07,0,*5B
1513123658.47,27478,7.0,72820.8,-7.49,-8.07,-8.07,0,*54
1513123659.74,27479,7.0,72824.5,-7.47,-8.11,-8.03,0,*58
1513123661.01,27480,7.0,72822.3,-7.51,-8.17,-8.07,0,*5B
1513123662.27,27481,7.0,72820.5,-7.49,-8.07,-8.07,0,*52
1513123663.53,27482,7.0,72822.8,-7.49,-8.07,-8.07,0,*51
1513123664.76,27483,7.0,72824.5,-7.49,-8.17,-8.07,0,*51
1513123666.03,27484,7.0,72820.0,-7.49,-8.07,-8.07,0,*57
1513123667.29,27485,7.0,72826.8,-7.49,-8.07,-8.07,0,*56
1513123668.55,27486,7.06,72826.3,-7.49,-8.07,-8.07,0,*55
1513123669.78,27487,7.0,72824.0,-7.49,-8.17,-8.07,0,*55
1513123671.05,27488,7.0,72824.3,-7.49,-8.07,-8.07,0,*5B
1513123672.32,27489,7.06,72830.0,-7.47,-8.03,-8.03,0,*54
1513123673.58,27490,7.0,72826.3,-7.49,-8.07,-8.07,0,*52
1513123674.81,27491,7.06,72828.8,-7.49,-8.21,-8.07,0,*57
1513123676.07,27492,7.0,72826.5,-7.51,-8.07,-8.17,0,*58
1513123677.3,27493,7.0,72822.3,-7.49,-8.17,-8.07,0,*50
1513123678.54,27494,7.06,72826.8,-7.49,-8.17,-8.07,0,*57
1513123679.82,27495,7.0,72826.3,-7.47,-8.11,-7.99,0,*56
1513123681.02,27496,7.0,72824.5,-7.49,-8.17,-8.17,0,*54
1513123682.22,27497,7.0,72824.0,-7.49,-8.17,-8.17,0,*55
1513123683.48,27498,7.0,72824.3,-7.49,-8.07,-8.07,0,*5A
1513123684.76,27499,7.0,72824.8,-7.47,-8.11,-8.03,0,*56
1513123685.99,27500,7.06,72828.0,-7.49,-8.17,-8.07,0,*5B
1513123687.25,27501,7.0,72822.3,-7.49,-8.07,-8.07,0,*5B
1513123688.52,27502,7.0,72824.3,-7.49,-8.07,-8.07,0,*58
1513123689.78,27503,7.0,72822.3,-7.49,-8.07,-8.07,0,*59
1513123691.03,27504,7.0,72822.0,-7.49,-8.03,-8.07,0,*5A
1513123692.29,27505,7.0,72822.5,-7.49,-8.07,-8.07,0,*5F
1513123693.53,27506,7.0,72820.3,-7.49,-8.17,-8.07,0,*5D
1513123694.73,27507,7.0,72822.8,-7.49,-8.21,-8.17,0,*58
1513123695.96,27508,7.0,72822.8,-7.49,-8.07,-8.17,0,*53
1513123697.19,27509,7.0,72822.0,-7.49,-8.21,-8.07,0,*57
1513123698.39,27510,7.0,72820.0,-7.49,-8.17,-8.21,0,*5E
1513123699.67,27511,7.0,72820.8,-7.47,-8.11,-8.11,0,*54
1513123700.88,27512,7.0,72822.0,-7.49,-8.17,-8.17,0,*59
1513123702.08,27513,7.0,72822.8,-7.49,-8.17,-8.17,0,*58
1513123703.28,27514,7.0,72822.8,-7.49,-8.21,-8.21,0,*5F
1513123704.48,27515,7.0,72820.5,-7.49,-8.17,-8.17,0,*5E
1513123705.68,27516,7.0,72822.3,-7.49,-8.17,-8.21,0,*58
1513123706.89,27517,7.0,72820.0,-7.49,-8.17,-8.21,0,*59
1513123708.09,27518,7.0,72820.8,-7.49,-8.17,-8.21,0,*56
1513123709.29,27519,7.06,72824.5,-7.49,-8.17,-8.21,0,*57
1513123710.5,27520,7.06,72824.0,-7.49,-8.21,-8.21,0,*58
1513123711.7,27521,7.0,72822.8,-7.49,-8.17,-8.17,0,*59
1513123712.96,27522,7.0,72820.8,-7.51,-8.21,-8.07,0,*57
1513123714.22,27523,7.0,72820.8,-7.51,-8.17,-8.07,0,*53
1513123715.42,27524,7.0,72820.5,-7.49,-8.21,-8.17,0,*59
1513123716.62,27525,7.0,72822.5,-7.49,-8.17,-8.17,0,*5D
1513123717.82,27526,7.0,72822.5,-7.49,-8.21,-8.17,0,*5B
1513123719.02,27527,7.0,72820.5,-7.49,-8.21,-8.21,0,*5F
1513123720.22,27528,7.0,72822.5,-7.49,-8.21,-8.21,0,*50
1513123721.45,27529,7.06,72822.0,-7.51,-8.17,-8.21,0,*5D
1513123722.68,27530,7.0,72820.0,-7.51,-8.17,-8.17,0,*50
1513123723.91,27531,7.0,72822.5,-7.51,-8.17,-8.21,0,*54
1513123725.14,27532,7.0,72822.5,-7.51,-8.17,-8.17,0,*52
1513123726.34,27533,7.06,72824.3,-7.49,-8.21,-8.17,0,*5F
1513123727.56,27534,7.0,72822.5,-7.51,-8.21,-8.17,0,*51
1513123728.79,27535,7.0,72822.8,-7.51,-8.21,-8.17,0,*50
1513123730.05,27536,7.0,72822.0,-7.51,-8.17,-8.07,0,*57
1513123731.28,27537,7.0,72824.5,-7.51,-8.17,-8.17,0,*57
1513123732.51,27538,7.0,72820.5,-7.51,-8.17,-8.17,0,*58
1513123733.76,27539,7.0,72820.8,-7.51,-8.07,-8.17,0,*58